Flag for Hungary Weather past 2 weeks in Pécs, Hungary

Now
44 °F

Low clouds.


Feels Like: 42 °F
Forecast: 40 / 51 °F
Wind: 3 mph from Northeast

Location: Pecs / Pogany

Current Time: Oct 24, 2014 at 7:05:33 PM

Latest Report: Oct 24, 2014 at 6:00 PM


Visibility: 5 mi

Pressure: 30.09 "Hg

Humidity: 96%

Dew point: 43 °F

Location of PécsLocation

Historic Weather in Pécs — Graph

°F

Pécs temperature yesterday

Maximum temperature yesterday: 49 °F (at 11:00 PM)
Minimum temperature yesterday: 42 °F (at 12:00 AM)
Average temperature yesterday: 45 °F

Past Weeks' High & Low Weather Summary

 TemperatureHumidityPressure
High79 °F (Oct 13, 4:00 PM)98% (Oct 10, 7:00 AM)30.38 "Hg (Oct 10, 7:00 AM)
Low42 °F (Oct 23, 12:00 AM)41% (Oct 10, 5:00 PM)29.56 "Hg (Oct 22, 4:00 AM)
Average59 °F82%29.97 "Hg
* Reported Oct 9 5:00 PM — Oct 24 5:00 PM, Pécs, Weather by CustomWeather, © 2014

Note: Actual official high and low records may vary slightly from our data, if they occured in-between our weather recording intervals... More about our weather records

Advertising

Pécs weather history for previous 24 hours

 ConditionsComfort  
Time TempWeatherWind HumidityBarometerVisibility
5:00 PM
Oct 24
44 °FDrizzle. Low clouds.3 mph97%30.08 "Hg1 mi
4:00 PM44 °FLight rain. Low clouds.5 mph96%30.06 "Hg4 mi
3:00 PM45 °FLight rain. Low clouds.6 mph93%30.04 "Hg12 mi
2:00 PM45 °FLight rain. Low clouds.6 mph92%30.04 "Hg12 mi
1:00 PM46 °FLight rain. Low clouds.6 mph93%30.02 "Hg12 mi
12:00 PM45 °FLight rain. Low clouds.6 mph92%30.01 "Hg12 mi
11:00 AM45 °FLight rain. Low clouds.7 mph93%30.00 "Hg7 mi
10:00 AM45 °FLight rain. Low clouds.6 mph92%29.97 "Hg9 mi
9:00 AM45 °FLight rain. Low clouds.5 mph96%29.94 "Hg9 mi
8:00 AM45 °FLight rain. Low clouds.6 mph95%29.91 "Hg5 mi
7:00 AM45 °FLight rain. Low clouds.7 mph94%29.88 "Hg7 mi
6:00 AM46 °FLight rain. Low clouds.7 mph94%29.86 "Hg7 mi
5:00 AM47 °FLight rain. Low clouds.6 mph95%29.85 "Hg7 mi
4:00 AM47 °FLight rain. Low clouds.6 mph95%29.83 "Hg7 mi
3:00 AM47 °FLight rain. Low clouds.7 mph95%29.82 "Hg7 mi
2:00 AM47 °FLight rain. Low clouds.7 mph94%29.80 "Hg6 mi
1:00 AM48 °FLight rain. Low clouds.7 mph94%29.79 "Hg9 mi
12:00 AM48 °FLight rain. Low clouds.7 mph94%29.79 "Hg9 mi
11:00 PM
Oct 23
49 °FLight rain. Low clouds.7 mph94%29.77 "Hg9 mi
10:00 PM49 °FLight rain. Low clouds.5 mph96%29.75 "Hg9 mi
9:00 PM48 °FLight rain. Low clouds.3 mph96%29.75 "Hg9 mi
8:00 PM47 °FLight rain. Low clouds.5 mph95%29.75 "Hg12 mi
7:00 PM46 °FLight rain. Low clouds.3 mph96%29.75 "Hg12 mi
Weather by CustomWeather, © 2014

See weather overviewHow to use our weather pages